Content
SEND FEEDBACK

Daily
Averages
Monthly
Summary
Belgium

GENT, BELGIUM


Home > Europe > Belgium
Elevation: 43 feet     Latitude: 51 11N     Longitude: 003 49E

WEATHER
 
SELECT A DAY
Number of Records: 316,776;   Date Range: 7/1/96 - 12/17/14
 
SHARE

PRINT THIS DATA

[ ← Previous Day ]
WEATHER ALMANAC - MARCH 14, 2014
[ Next Day → ]
[ °C ]   °F
Weather ElementAverageHighLow
Temperature49.1 °F60.8 °F (3:20 pm)37.4 °F (6:50 am)
Dewpoint38.3 °F44.6 °F (7:20 pm)24.8 °F (2:20 pm)
Humidity66.1 %93 % (6:50 am)23 % (3:00 pm)
Barometer30.32 in30.41 in (1:00 am)30.18 in (9:50 pm)
Wind Speed4.7 mph11.5 mph (6:20 pm)
Weather ElementAverage
Visibility3.8 mi
Wind DirectionSSE (140.7 °)

Weather ElementTotal
Precipitation---
Heating Degree Days15.9 (Base 65)
Averaged from 71 records on March 14, 2014
WEATHER CONDITIONS BREAKOUT
WIND DIRECTION BREAKOUT
WEATHER BY HOUR - MARCH 14, 2014
[ °C ]   °F
Local TimeTemperatureDewpointHumidityBarometerVisibilityWind DirectionWind SpeedGust SpeedPrecipitationEventsConditions
12:20 AM46.4 °F39.2 °F76 %30.39 in3.7 miNE (40°)3.5 mph
12:50 AM44.6 °F39.2 °F81 %30.39 in3.7 miNNE (20°)2.3 mph
1:00 AM45.0 °F39.0 °F72 %30.41 inNNE (20°)2.2 mph
1:20 AM44.6 °F39.2 °F81 %30.39 in3.7 miNNE (20°)2.3 mph
1:50 AM42.8 °F37.4 °F81 %30.39 in3.7 miVariable2.3 mph
2:00 AM43.0 °F37.0 °F72 %30.41 in3.0 miNE (40°)2.2 mphMist
2:20 AM42.8 °F35.6 °F76 %30.39 in4.3 miNorth (10°)2.3 mph
2:50 AM42.8 °F35.6 °F76 %30.39 in3.7 miVariable1.2 mph
3:00 AM42.0 °F36.0 °F73 %30.40 in3.0 miNNE (30°)2.2 mphMist
3:20 AM42.8 °F35.6 °F76 %30.39 in3.7 miNorth (10°)2.3 mph
3:50 AM42.8 °F35.6 °F76 %30.39 in3.7 miVariable1.2 mph
4:00 AM43.0 °F36.0 °F69 %30.40 in3.0 miCalmMist
4:20 AM39.2 °F35.6 °F87 %30.39 in3.7 miNorth (10°)2.3 mph
4:50 AM41.0 °F37.4 °F87 %30.39 in3.7 miVariable2.3 mph
5:00 AM41.0 °F37.0 °F79 %30.40 in3.0 miNorth (10°)2.2 mphMist
5:20 AM41.0 °F37.4 °F87 %30.39 in3.1 miVariable2.3 mph
5:50 AM39.2 °F35.6 °F87 %30.39 in2.5 miNNE (20°)3.5 mphMist
6:00 AM39.0 °F36.0 °F83 %30.40 in2.0 miNNE (20°)2.2 mphMist
6:20 AM39.2 °F35.6 °F87 %30.36 inVariable2.3 mphMist
6:50 AM37.4 °F35.6 °F93 %30.36 inVariable1.2 mphFogFog
7:00 AM38.0 °F35.0 °F85 %30.39 in2.0 miCalmFogPatches of Fog
7:20 AM37.4 °F35.6 °F93 %30.36 inCalmFogFog
7:50 AM39.2 °F35.6 °F87 %30.39 inCalmFogFog
8:00 AM39.0 °F36.0 °F86 %30.39 in2.0 miCalmFogPatches of Fog
8:20 AM41.0 °F37.4 °F87 %30.39 in2.5 miVariable1.2 mphMist
8:50 AM42.8 °F39.2 °F87 %30.39 inVariable2.3 mphMist
9:00 AM42.0 °F39.0 °F85 %30.39 in2.0 miEast (90°)2.2 mphMist
9:20 AM44.6 °F39.2 °F81 %30.39 inEast (100°)3.5 mphMist
9:50 AM46.4 °F39.2 °F76 %30.39 in3.1 miESE (120°)3.5 mphHaze
10:00 AM46.0 °F39.0 °F69 %30.39 in3.0 miESE (120°)4.5 mphHaze
10:20 AM48.2 °F41.0 °F76 %30.39 in3.7 miVariable2.3 mph
10:50 AM50.0 °F41.0 °F71 %30.36 in3.7 miVariable2.3 mph
11:00 AM50.0 °F40.0 °F59 %30.38 in4.0 miSE (140°)2.2 mphClear
11:20 AM51.8 °F41.0 °F67 %30.36 in3.7 miVariable2.3 mph
11:50 AM53.6 °F39.2 °F58 %30.36 in4.3 miVariable2.3 mph
12:00 PM53.0 °F40.0 °F50 %30.37 in4.0 miSSE (150°)2.2 mphClear
12:20 PM55.4 °F39.2 °F54 %30.33 in4.3 miVariable2.3 mph
12:50 PM57.2 °F41.0 °F55 %30.33 in5.0 miVariable1.2 mph
1:00 PM57.0 °F41.0 °F44 %30.35 in5.0 mi°2.2 mphClear
1:20 PM57.2 °F35.6 °F44 %30.30 in5.0 miVariable2.3 mph
1:50 PM59.0 °F33.8 °F39 %30.30 in5.6 miWNW (290°)4.6 mph
2:00 PM58.0 °F34.0 °F28 %30.31 in6.0 miWNW (290°)4.5 mphClear
2:20 PM59.0 °F24.8 °F27 %30.30 inWest (260°)6.9 mphClear
2:50 PM59.0 °F32.0 °F36 %30.27 inWSW (240°)5.8 mphClear
3:00 PM60.0 °F32.0 °F23 %30.29 in7.0 miWSW (240°)6.7 mphClear
3:20 PM60.8 °F35.6 °F39 %30.27 inWNW (290°)5.8 mphClear
3:50 PM59.0 °F32.0 °F36 %30.27 inWest (280°)8.1 mphClear
4:00 PM60.0 °F32.0 °F23 %30.27 in6.0 miWest (280°)6.7 mphClear
4:20 PM60.8 °F33.8 °F36 %30.24 inWest (270°)8.1 mphClear
4:50 PM59.0 °F41.0 °F51 %30.24 inWest (270°)6.9 mphClear
5:00 PM59.0 °F40.0 °F38 %30.24 in6.0 miWest (270°)6.7 mphClear
5:20 PM57.2 °F41.0 °F55 %30.21 in5.6 miNW (320°)8.1 mph
5:50 PM57.2 °F42.8 °F59 %30.21 in5.0 miNW (320°)6.9 mph
6:00 PM57.0 °F43.0 °F49 %30.23 in5.0 miNW (320°)6.7 mphClear
6:20 PM53.6 °F42.8 °F67 %30.24 in4.3 miNW (320°)11.5 mph
6:50 PM53.6 °F42.8 °F67 %30.24 in3.1 miWNW (290°)6.9 mphHaze
7:00 PM54.0 °F44.0 °F59 %30.25 in3.0 miWNW (290°)6.7 mphHaze
7:20 PM51.8 °F44.6 °F76 %30.24 in3.1 miWNW (290°)5.8 mphHaze
7:50 PM51.8 °F44.6 °F76 %30.24 inWest (260°)5.8 mphHaze
8:00 PM52.0 °F44.0 °F66 %30.24 in3.0 miWest (260°)6.7 mphHaze
8:20 PM51.8 °F44.6 °F76 %30.24 inWest (270°)6.9 mphHaze
8:50 PM51.8 °F39.2 °F62 %30.21 in3.7 miWSW (250°)11.5 mph
9:00 PM52.0 °F40.0 °F52 %30.22 in4.0 miWSW (250°)11.2 mph
9:20 PM51.8 °F39.2 °F62 %30.21 in3.1 miWSW (250°)10.4 mphHaze
9:50 PM51.8 °F41.0 °F67 %30.18 inWSW (250°)10.4 mphHaze
10:00 PM51.0 °F42.0 °F61 %30.21 in3.0 miWSW (250°)11.2 mphHaze
10:20 PM50.0 °F41.0 °F71 %30.21 inWest (260°)11.5 mphHaze
10:50 PM50.0 °F41.0 °F71 %30.18 inWSW (250°)11.5 mphHaze
11:00 PM50.0 °F41.0 °F62 %30.19 in3.0 miWSW (250°)11.2 mphHaze
11:20 PM50.0 °F41.0 °F71 %30.18 inWest (260°)10.4 mphMist
11:50 PM48.2 °F41.0 °F76 %30.18 in2.5 miWest (270°)10.4 mphMist
Hourly data recorded from EBAW, located miles away from Gent, Belgium







STORIES FROM OUR PARTNERS